Temperature
15 15 15 16 16 16 18 21 22 22 22 22 22 22 22 20 20 18 17 17 16 16 16 16 16 16 16 16 16 16 16 16 16 16 16 16 16 16 16 16 16 15 15 15 15 15 15 15 15
14 15 15 16 16 17 19 20 21 21 21 21 21 22 21 19 17 17 16 16 16 16 16 16 16 16 16 16 16 16 16 16 16 16 16 16 16 16 16 16 16 16 16 16 15 15 15 15 15
14 14 15 16 17 18 19 20 20 20 20 21 20 20 20 18 16 16 15 15 15 15 16 16 16 16 16 16 16 16 16 16 16 16 16 16 16 16 16 16 16 16 16 16 16 15 15 15 15
14 15 16 16 17 18 19 20 19 20 20 20 20 19 17 17 16 15 15 15 15 15 15 15 15 16 16 16 16 15 15 15 15 16 16 16 16 16 16 16 16 16 16 16 15 15 15 15 15
14 15 15 16 17 18 19 19 19 19 19 20 19 18 16 16 15 15 15 15 15 15 15 15 15 15 15 15 15 15 15 15 15 15 15 15 15 15 15 15 15 15 15 15 15 15 15 15 15
15 16 15 16 17 18 18 19 19 19 19 19 19 18 15 15 15 15 14 14 14 14 14 15 14 15 15 15 15 15 15 15 15 15 15 15 15 15 15 15 15 15 15 15 15 15 15 15 15
15 15 15 16 17 18 18 18 18 18 18 18 18 17 15 14 14 14 14 14 14 14 14 14 14 14 14 14 14 15 15 15 15 15 15 15 15 15 15 15 15 15 15 15 15 15 15 15 15
14 14 15 16 17 17 17 17 17 17 17 17 17 17 15 14 14 14 13 13 13 13 13 14 14 14 14 14 14 14 14 14 14 14 14 15 15 15 15 15 15 15 15 15 15 15 15 15 15
14 14 14 15 16 16 16 16 16 16 16 16 16 15 15 14 13 13 13 13 13 13 13 13 13 13 14 14 14 14 14 14 14 14 14 14 14 14 14 14 14 14 15 15 15 15 14 14 14
14 13 15 16 16 15 15 15 15 15 15 15 15 14 14 14 13 13 13 12 12 13 13 13 13 13 13 14 14 14 14 14 14 14 14 14 14 14 14 14 14 14 14 14 14 14 14 14 14
14 14 15 15 15 15 15 15 15 15 15 15 15 14 13 13 13 13 12 12 12 12 13 13 13 13 13 13 13 13 13 13 13 13 13 13 13 13 13 14 14 14 14 14 14 14 14 14 13
14 15 15 15 14 14 14 15 14 15 15 15 15 14 13 13 12 12 12 12 12 12 12 13 13 13 13 13 13 13 13 13 13 13 13 13 13 13 13 13 13 13 14 14 14 14 13 13 13
14 14 14 14 14 14 14 14 14 14 14 14 14 14 13 13 12 12 12 12 12 12 12 12 12 12 12 12 12 12 13 13 13 13 13 13 13 13 13 13 13 13 13 13 13 13 13 13 13
14 14 14 14 14 14 14 14 14 14 14 14 14 13 13 12 12 12 12 11 11 11 12 12 12 12 12 12 12 12 12 12 12 12 12 13 13 13 13 13 13 13 13 13 13 13 13 13 13
13 13 13 14 14 14 13 13 13 14 14 14 13 13 12 12 12 12 12 11 11 11 11 11 12 12 11 11 12 12 12 12 12 12 12 12 12 12 12 12 13 12 12 13 13 13 13 13 12
13 13 13 14 14 14 13 12 14 14 14 13 13 13 12 12 12 12 11 11 11 11 11 11 11 11 11 11 11 11 11 12 12 12 12 12 12 12 12 12 12 12 12 12 12 12 12 12 12
13 12 13 13 14 14 13 12 13 14 14 13 13 13 12 12 11 11 11 11 11 11 11 11 11 11 11 11 11 11 11 11 11 11 11 11 11 12 12 12 12 12 12 12 12 12 12 12 12
12 12 13 13 13 13 12 12 13 14 14 13 13 13 12 12 11 11 11 11 11 11 11 11 11 11 11 11 11 11 11 11 11 11 11 11 11 11 11 11 11 11 12 12 11 12 12 12 11
12 12 12 13 13 12 12 12 13 14 13 13 13 13 12 11 11 11 11 11 11 11 10 10 11 11 10 10 10 10 10 10 10 11 11 11 11 11 11 11 11 11 11 11 11 11 11 11 11
12 12 12 12 13 12 12 12 13 13 12 13 12 12 12 11 11 10 10 10 10 10 10 10 10 10 10 10 10 10 10 10 10 10 10 10 10 10 10 11 11 11 11 11 10 10 10 10 10
12 12 11 11 12 12 11 11 13 13 13 13 12 12 12 11 10 10 10 10 10 10 10 10 10 10 10 10 10 10 10 10 10 10 10 10 10 10 10 10 10 10 10 10 10 10 10 10 10
11 12 11 11 10 10 12 10 13 12 12 12 12 12 11 11 10 10 10 10 10 10 10 10 10 10 10 10 10 9 9 9 9 9 9 9 9 10 10 10 10 10 9 9 9 9 9 9 9
11 11 11 11 10 10 11 11 11 12 12 11 11 12 11 11 10 10 10 10 10 10 10 10 10 10 10 10 9 9 9 9 9 9 9 9 9 9 9 9 9 9 9 9 9 9 8 8 8
10 10 10 10 9 9 11 11 11 12 12 12 11 11 11 11 10 10 9 9 9 9 10 10 9 9 9 9 9 9 9 9 9 9 8 8 8 8 9 9 9 8 8 8 8 8 8 8 7
10 9 9 9 9 10 12 11 11 13 13 12 11 11 11 10 10 10 9 9 9 9 9 9 9 9 9 9 9 9 9 9 8 8 8 8 8 8 8 8 8 8 8 8 8 7 7 7 7
10 10 9 9 10 11 11 11 11 13 12 12 12 11 11 10 10 10 9 9 9 9 9 9 9 9 9 9 9 8 8 8 8 8 8 8 8 8 8 7 7 7 7 7 7 7 7 7 6
10 9 10 9 9 9 11 12 12 12 11 11 11 11 10 10 10 9 9 9 9 9 9 9 9 9 9 9 8 8 8 8 8 8 7 7 7 7 7 7 7 7 7 7 7 6 6 6 6
9 10 9 8 9 9 11 12 11 11 11 10 10 10 10 10 9 9 9 9 9 9 9 9 8 8 8 8 8 8 8 8 8 7 7 7 7 7 7 7 7 6 6 6 6 6 6 5 5
8 9 9 9 9 9 10 11 12 11 11 10 10 11 10 10 9 9 9 8 8 8 8 8 8 8 8 8 8 8 7 7 7 7 7 7 6 6 6 6 6 6 6 6 6 5 5 5 5
9 9 9 8 8 9 8 9 12 11 11 11 11 11 10 10 9 9 8 8 8 8 8 7 8 7 7 7 7 7 7 7 7 6 6 6 6 6 6 6 6 5 5 5 5 5 5 5 4
Wind_Speed
13 11 6 2 3 5 9 5 3 3 2 3 5 3 3 4 3 6 4 7 10 11 13 12 11 10 10 11 11 11 10 9 8 8 8 8 8 7 7 7 7 7 7 7 8 8 7 7 7
11 6 3 3 4 7 7 4 3 3 2 3 3 3 2 5 6 6 4 7 9 10 12 12 12 11 10 10 10 10 10 9 9 8 8 7 7 7 7 6 6 6 7 6 7 7 7 6 6
9 6 3 3 5 6 4 2 2 2 2 1 1 4 4 4 5 3 4 6 7 10 11 12 12 11 10 10 9 9 9 9 8 8 8 7 7 7 6 6 6 6 6 6 6 6 6 5 5
4 3 3 4 9 6 5 4 3 3 1 1 1 3 3 5 4 5 5 5 7 9 12 12 12 11 10 10 9 9 9 8 8 8 8 7 6 6 7 7 6 6 6 5 5 5 4 4 4
4 3 4 6 9 6 3 4 5 3 2 1 1 1 3 4 8 7 4 5 8 9 11 11 12 12 11 10 9 8 8 8 7 7 7 7 6 6 6 6 6 6 5 5 4 4 3 3 2
3 3 4 7 7 4 2 3 4 3 2 1 1 0 2 4 6 5 4 6 8 9 11 11 11 12 11 10 9 8 8 7 6 6 6 6 6 6 6 6 5 5 4 4 3 3 2 2 1
3 3 5 6 6 4 3 2 3 3 3 2 1 1 3 3 4 5 5 6 8 9 9 9 9 10 11 10 9 8 7 6 6 6 6 5 5 5 5 5 5 4 4 3 2 2 1 1 1
3 3 5 5 6 4 2 2 2 4 4 4 3 0 3 4 4 4 5 6 7 7 7 7 8 8 9 10 9 8 7 6 5 5 6 5 5 5 5 4 4 3 3 2 1 1 1 2 3
3 3 4 4 4 3 4 3 2 3 3 3 3 3 4 8 5 5 5 5 5 6 5 6 7 6 7 8 7 7 7 5 4 5 5 4 4 4 5 4 3 3 3 2 1 2 3 3 5
3 3 4 3 4 4 4 4 3 2 3 2 1 4 7 7 6 6 5 5 5 5 4 5 5 5 5 6 6 5 6 5 3 3 3 3 3 3 3 4 3 3 3 3 3 3 3 4 4
3 4 4 4 5 4 4 4 4 5 5 3 2 4 6 6 6 5 5 5 5 4 4 4 5 5 5 4 4 4 5 4 3 3 2 2 3 3 3 3 2 1 2 1 2 3 3 4 4
4 5 5 4 5 4 4 4 5 6 4 4 1 6 7 6 6 6 5 5 5 5 5 4 4 4 4 4 3 3 4 4 3 3 3 2 2 2 3 2 2 2 1 1 2 2 4 4 4
6 4 4 3 4 5 5 5 5 6 4 2 1 4 7 6 6 5 5 5 5 5 4 4 4 4 4 4 2 4 4 4 5 4 4 4 3 2 3 2 2 2 2 2 2 3 3 3 4
3 4 5 4 4 4 5 6 5 5 3 2 3 4 6 6 6 5 6 6 5 5 5 5 5 4 4 3 2 3 5 5 5 5 5 6 5 4 2 2 3 3 4 3 3 3 3 2 2
4 5 5 4 4 3 4 6 5 4 2 3 4 4 5 6 6 6 6 6 6 5 5 5 5 4 4 3 3 4 4 5 5 5 5 6 5 4 3 2 2 3 5 5 3 3 3 2 2
5 5 3 3 3 2 3 6 4 3 4 4 4 4 5 6 6 6 6 6 6 5 5 5 5 4 4 4 3 3 4 4 5 5 5 6 6 5 4 2 2 4 5 4 2 1 2 2 2
3 3 4 2 2 1 4 6 3 2 4 4 5 5 5 6 6 6 7 7 6 6 5 5 5 5 4 4 3 3 4 4 5 5 5 5 6 6 4 3 3 4 3 3 2 2 1 2 3
3 4 4 3 1 2 5 7 4 2 4 4 4 5 5 5 5 6 7 7 6 6 6 6 6 5 4 3 2 2 3 3 4 5 5 5 5 5 4 3 3 4 3 3 3 2 2 2 2
5 6 7 4 2 3 6 8 6 3 2 3 3 4 5 5 5 6 7 7 6 6 6 6 6 5 4 2 2 2 2 2 2 3 5 5 4 4 3 3 3 3 2 2 3 2 2 2 2
6 7 6 3 2 3 6 9 6 3 3 3 3 4 5 6 6 6 7 7 6 6 6 5 5 5 4 2 1 2 2 2 2 2 3 3 3 3 3 3 2 2 2 3 3 3 2 2 2
5 4 4 5 5 4 4 6 6 4 4 4 3 4 5 6 7 6 6 7 7 6 6 6 5 5 4 3 2 3 2 2 2 1 1 1 2 2 3 3 2 2 2 2 2 2 2 1 2
4 2 4 5 4 3 3 4 4 6 6 5 4 4 5 5 6 6 6 6 6 6 6 6 6 5 5 4 3 4 3 2 2 1 1 1 2 2 2 2 2 1 1 1 1 2 1 1 1
2 4 5 5 4 5 4 4 5 5 6 6 6 5 6 6 6 6 6 6 6 6 6 5 5 5 5 5 5 4 3 2 2 2 2 1 1 1 1 0 1 1 1 1 1 2 2 1 1
3 4 5 4 2 4 5 5 4 4 6 7 7 6 6 6 6 6 6 6 5 5 6 5 5 5 5 5 5 4 4 4 3 2 2 1 1 1 1 0 0 0 0 1 1 1 1 2 2
3 1 1 1 2 5 3 4 5 2 5 7 8 7 6 6 6 6 6 6 6 6 5 5 6 5 5 5 4 4 4 4 4 3 2 2 1 1 1 1 1 1 1 1 1 1 1 2 2
3 1 1 2 3 3 2 4 3 4 6 6 6 6 6 5 5 5 5 5 5 6 5 5 5 5 5 5 4 4 3 3 3 3 2 2 2 2 2 1 1 1 1 2 1 1 2 2 2
1 2 1 1 3 4 5 3 2 4 6 6 6 6 6 5 5 5 5 5 5 5 5 5 5 5 5 5 5 4 4 4 3 3 2 2 2 2 2 2 2 2 2 2 2 2 2 2 3
3 2 1 2 2 4 5 4 4 7 7 7 7 6 6 6 5 4 4 4 4 4 4 4 5 5 5 5 4 3 4 4 4 3 3 3 3 2 3 3 3 3 3 3 3 2 3 3 3
4 3 3 3 3 2 4 3 2 5 6 7 7 6 6 5 5 5 4 4 4 4 4 4 4 4 4 4 4 3 3 3 3 3 3 3 3 3 3 3 3 4 3 3 3 3 3 4 4
3 4 4 3 4 4 3 4 2 5 5 5 5 4 4 4 4 4 4 4 4 4 4 4 4 4 4 4 4 4 3 3 3 3 3 3 3 3 3 3 3 4 4 3 4 4 4 4 4
Wind_Direction
303 281 263 252 238 232 242 245 263 279 297 357 359 340 355 16 20 114 117 87 102 114 121 118 115 116 121 120 115 111 112 111 115 118 114 113 115 115 112 110 110 107 104 100 100 97 92 90 94
298 292 267 239 238 239 242 235 245 303 6 12 1 344 6 64 69 94 94 92 106 113 119 122 119 116 116 119 117 113 110 108 107 113 114 112 111 113 113 111 114 109 105 103 100 98 94 90 91
274 270 259 237 236 244 268 334 45 355 22 339 5 2 15 62 87 87 93 101 102 108 113 121 120 116 113 115 119 118 114 112 108 103 106 110 109 109 109 108 107 103 98 101 104 103 100 94 91
273 230 243 247 251 260 290 325 358 350 313 332 78 90 60 38 55 92 105 107 108 107 106 121 122 119 115 113 114 121 118 113 110 107 104 102 105 109 106 104 103 102 100 98 105 108 106 101 96
247 246 232 240 250 263 296 325 325 314 292 235 120 100 78 53 80 94 99 98 104 103 108 119 124 121 116 113 108 109 115 116 112 107 104 103 98 95 102 104 99 101 104 106 108 113 117 111 105
258 244 243 247 251 253 280 304 302 285 294 328 119 170 95 115 102 101 93 94 96 102 105 111 122 121 117 115 110 105 106 110 113 111 107 102 97 97 93 102 103 103 101 104 111 118 134 144 144
274 262 254 267 276 271 283 300 297 299 308 315 314 169 138 133 98 100 100 97 98 104 109 111 114 119 115 113 110 107 105 109 116 121 117 115 111 108 105 105 107 108 107 104 102 119 156 178 204
292 282 263 265 270 280 312 304 326 320 315 334 341 121 145 133 104 106 108 103 100 103 110 112 109 117 118 113 109 109 114 117 127 131 132 133 138 134 127 114 121 124 126 124 124 174 219 230 237
285 259 257 273 281 317 351 335 326 332 333 339 5 12 107 126 124 117 112 103 102 104 108 110 104 100 113 116 115 118 118 119 142 146 143 149 140 129 130 128 137 152 160 175 196 229 246 248 243
236 244 262 299 326 338 336 332 315 295 282 280 350 77 108 128 136 135 136 133 124 122 116 110 108 100 101 109 114 119 117 108 100 109 111 114 115 125 132 146 163 186 197 211 234 253 255 254 244
238 254 291 321 338 333 310 304 298 273 266 270 233 148 138 144 145 148 147 140 132 128 112 100 103 101 92 98 106 101 104 103 88 90 95 95 103 107 100 108 115 191 214 221 263 259 262 260 255
254 268 302 319 335 315 289 287 281 272 286 327 231 158 152 158 161 159 149 130 119 116 108 101 102 105 89 89 103 107 94 82 71 66 68 69 69 69 71 77 62 37 347 322 312 286 276 274 272
256 276 300 299 294 283 280 272 276 276 288 318 107 146 155 165 162 153 139 125 120 112 117 118 109 110 102 83 96 93 84 83 73 60 45 47 59 57 48 48 44 27 358 338 322 304 304 292 289
288 292 283 274 277 277 274 272 261 266 255 197 171 168 162 159 156 149 139 132 129 127 126 119 114 109 108 97 100 94 89 86 76 66 51 50 55 51 45 52 37 14 357 339 325 316 309 305 322
281 269 258 236 236 245 269 268 239 240 212 200 185 174 161 161 158 153 145 138 132 125 115 117 117 106 110 97 87 92 94 95 85 71 63 57 52 48 37 50 43 18 8 355 347 341 336 337 345
243 245 251 208 207 202 234 264 249 195 203 209 192 179 168 162 156 150 143 134 128 124 116 112 114 106 103 87 72 84 89 94 89 77 72 60 48 41 36 40 31 14 12 359 350 359 349 348 349
227 270 271 255 195 201 229 264 270 225 194 202 192 180 166 151 145 143 140 137 135 134 131 121 112 110 105 95 74 87 88 84 84 73 64 55 45 35 35 36 22 16 13 7 354 20 4 345 332
285 289 295 281 235 286 257 265 269 236 188 195 184 168 161 152 151 144 139 136 135 137 135 130 124 120 110 104 90 90 92 86 83 76 63 53 47 34 28 31 24 20 29 13 360 356 6 346 319
289 290 295 312 4 299 269 271 265 217 189 187 181 165 157 154 145 140 140 137 138 140 142 142 137 132 124 129 121 117 109 102 90 84 72 53 45 36 32 31 24 24 37 12 358 358 359 1 350
278 283 296 320 354 297 280 277 267 198 183 172 178 161 152 146 142 145 143 143 148 152 151 147 145 141 138 139 134 124 120 121 115 95 81 62 46 29 30 37 27 23 34 22 16 14 1 3 19
278 273 298 307 315 254 271 278 229 190 163 156 170 157 153 154 155 155 151 147 154 156 159 155 151 145 145 142 117 106 91 80 73 102 123 98 65 43 25 20 30 23 34 30 13 8 18 339 337
283 320 306 303 313 285 235 279 226 180 166 163 168 157 151 149 146 149 150 148 152 156 151 149 152 152 151 148 150 146 149 154 169 166 152 138 112 72 38 13 23 30 25 17 355 3 344 7 323
296 326 291 278 277 290 249 245 260 172 178 180 169 155 147 147 147 145 145 147 144 144 146 145 147 152 153 157 160 158 159 160 147 141 140 150 155 139 131 22 15 13 15 338 352 347 337 339 289
292 284 263 247 258 267 228 217 257 199 189 170 160 152 146 144 141 139 137 134 135 135 137 143 150 154 155 158 164 167 164 158 155 164 176 183 193 178 154 162 27 351 338 290 299 302 306 298 284
254 293 349 305 236 244 201 208 246 182 145 150 156 153 145 143 145 145 145 143 144 144 149 153 153 157 158 159 169 174 174 168 176 185 194 198 200 196 207 188 206 246 267 273 282 267 283 283 279
248 254 172 246 277 298 253 230 234 131 115 120 130 139 144 149 148 148 149 150 152 154 157 159 164 167 166 166 174 176 178 173 180 189 192 203 204 204 198 201 213 223 242 258 248 239 253 266 262
251 225 278 278 289 279 251 214 159 135 141 148 149 153 161 162 158 153 150 152 156 159 165 170 172 173 173 171 169 176 179 179 186 191 195 200 206 211 196 210 225 233 234 239 239 242 249 250 249
281 312 199 195 260 276 268 238 204 173 176 169 170 171 168 162 156 151 152 153 155 159 168 172 175 176 170 167 172 177 183 182 186 190 201 204 209 209 211 219 224 230 230 228 227 239 245 247 248
190 219 230 246 242 244 280 280 37 143 154 163 171 168 161 158 157 157 161 161 157 161 167 169 168 164 164 169 173 175 182 186 189 197 206 208 214 214 218 224 225 228 230 227 226 234 236 241 249
216 218 196 204 251 242 257 271 38 93 110 129 137 138 140 147 150 153 159 158 163 174 175 172 169 174 178 175 176 180 182 190 200 208 213 210 219 221 227 233 235 237 239 233 229 238 238 234 240
Height
1499 1500 1502 1505 1506 1505 1498 1487 1482 1481 1482 1484 1485 1485 1487 1491 1496 1504 1504 1503 1503 1504 1507 1509 1511 1513 1515 1517 1518 1520 1521 1523 1524 1526 1527 1528 1529 1530 1531 1532 1533 1534 1535 1535 1536 1537 1537 1538 1538
1498 1501 1504 1504 1505 1505 1494 1485 1484 1484 1484 1486 1486 1487 1488 1494 1497 1499 1501 1502 1503 1505 1507 1509 1511 1513 1515 1516 1518 1520 1521 1523 1524 1526 1527 1528 1530 1531 1532 1533 1533 1534 1535 1535 1536 1537 1537 1538 1538
1499 1501 1503 1501 1500 1498 1491 1484 1484 1485 1486 1487 1488 1490 1492 1496 1498 1499 1501 1502 1504 1505 1507 1509 1511 1513 1514 1516 1518 1520 1521 1523 1524 1526 1527 1528 1530 1531 1532 1533 1534 1534 1535 1536 1536 1537 1537 1538 1539
1500 1502 1502 1502 1498 1490 1488 1486 1485 1486 1487 1487 1489 1492 1495 1498 1498 1499 1501 1502 1504 1505 1507 1509 1511 1513 1514 1516 1517 1519 1521 1523 1524 1526 1527 1528 1530 1531 1532 1533 1534 1534 1535 1536 1536 1537 1537 1538 1539
1500 1501 1501 1500 1494 1489 1487 1487 1488 1488 1488 1488 1489 1491 1496 1498 1498 1499 1501 1502 1503 1504 1507 1509 1511 1512 1514 1516 1517 1519 1521 1522 1524 1525 1527 1528 1529 1530 1532 1533 1533 1534 1535 1536 1536 1537 1537 1538 1539
1501 1499 1501 1499 1491 1487 1487 1488 1488 1488 1488 1489 1490 1492 1496 1498 1498 1499 1501 1502 1503 1504 1506 1508 1511 1512 1513 1515 1516 1518 1520 1522 1523 1525 1526 1528 1529 1530 1531 1532 1533 1534 1535 1535 1536 1536 1537 1538 1539
1501 1499 1498 1494 1491 1489 1488 1488 1489 1489 1489 1490 1491 1492 1495 1497 1497 1498 1500 1501 1502 1503 1505 1507 1509 1511 1513 1515 1516 1518 1520 1521 1523 1524 1525 1527 1528 1529 1530 1531 1532 1533 1534 1535 1535 1536 1537 1537 1538
1499 1499 1495 1493 1492 1490 1489 1489 1489 1490 1490 1491 1491 1492 1494 1496 1496 1498 1500 1501 1502 1503 1505 1507 1509 1511 1513 1515 1516 1518 1519 1521 1522 1523 1525 1526 1527 1528 1530 1530 1532 1533 1533 1534 1535 1535 1536 1537 1537
1499 1502 1498 1494 1492 1490 1489 1490 1490 1490 1491 1491 1491 1492 1492 1494 1496 1498 1499 1500 1502 1503 1504 1506 1508 1510 1512 1514 1516 1517 1518 1520 1521 1522 1524 1525 1526 1527 1528 1529 1530 1531 1532 1533 1534 1534 1535 1535 1536
1499 1500 1495 1492 1491 1491 1490 1491 1491 1491 1491 1491 1492 1492 1492 1493 1495 1496 1498 1499 1501 1502 1504 1506 1508 1510 1511 1513 1514 1516 1517 1519 1520 1521 1523 1524 1525 1526 1527 1528 1529 1530 1531 1532 1532 1533 1533 1534 1534
1497 1496 1493 1492 1491 1491 1491 1491 1491 1491 1491 1490 1490 1491 1492 1493 1494 1496 1498 1499 1500 1501 1502 1504 1506 1508 1510 1512 1514 1515 1517 1518 1519 1521 1522 1523 1524 1525 1526 1527 1528 1529 1530 1530 1531 1531 1532 1532 1533
1495 1493 1492 1492 1492 1492 1491 1490 1490 1489 1489 1489 1489 1489 1490 1492 1493 1495 1497 1498 1500 1500 1502 1504 1505 1507 1509 1511 1513 1515 1516 1517 1518 1519 1521 1522 1523 1524 1525 1525 1526 1527 1528 1529 1529 1530 1530 1531 1532
1494 1492 1492 1492 1492 1491 1491 1490 1489 1488 1488 1487 1487 1489 1489 1491 1493 1495 1497 1498 1499 1500 1501 1503 1505 1507 1508 1510 1512 1514 1514 1516 1517 1518 1520 1521 1521 1522 1523 1524 1525 1526 1526 1527 1528 1528 1529 1530 1530
1493 1492 1492 1491 1491 1490 1490 1488 1488 1486 1486 1486 1487 1488 1489 1490 1491 1493 1495 1496 1498 1500 1500 1502 1504 1506 1507 1509 1511 1512 1513 1514 1516 1517 1518 1519 1520 1521 1522 1522 1523 1524 1525 1526 1526 1526 1527 1528 1528
1493 1492 1490 1489 1489 1489 1489 1488 1485 1485 1485 1485 1486 1487 1487 1489 1490 1492 1493 1495 1497 1499 1500 1501 1503 1505 1506 1508 1509 1511 1512 1514 1515 1516 1517 1518 1519 1520 1521 1521 1522 1522 1523 1523 1524 1524 1525 1526 1526
1491 1491 1492 1486 1486 1487 1491 1489 1482 1482 1483 1484 1485 1486 1486 1487 1489 1490 1492 1494 1496 1498 1499 1500 1502 1504 1506 1507 1508 1510 1512 1513 1514 1515 1516 1517 1518 1518 1519 1519 1520 1521 1521 1522 1522 1522 1523 1523 1523
1491 1493 1490 1486 1484 1484 1487 1486 1481 1480 1481 1482 1483 1484 1485 1487 1488 1489 1491 1493 1495 1497 1498 1500 1501 1503 1505 1506 1507 1509 1511 1512 1513 1514 1515 1516 1517 1517 1518 1518 1519 1519 1519 1519 1520 1520 1520 1520 1520
1495 1492 1488 1486 1483 1484 1485 1483 1480 1479 1479 1480 1481 1483 1484 1485 1487 1489 1490 1491 1493 1495 1497 1499 1500 1502 1503 1505 1507 1508 1510 1511 1512 1513 1514 1515 1516 1516 1516 1517 1517 1517 1517 1517 1517 1518 1518 1518 1518
1490 1490 1489 1485 1483 1485 1484 1481 1478 1477 1478 1478 1479 1481 1483 1484 1486 1488 1489 1490 1492 1494 1496 1498 1500 1501 1503 1504 1505 1507 1509 1510 1511 1512 1513 1514 1514 1515 1515 1515 1515 1515 1515 1515 1515 1515 1515 1515 1515
1489 1490 1488 1485 1483 1484 1483 1480 1475 1475 1476 1477 1478 1479 1481 1483 1485 1487 1488 1489 1491 1493 1495 1496 1498 1500 1501 1503 1504 1506 1508 1509 1510 1510 1511 1512 1513 1513 1513 1513 1513 1513 1513 1513 1513 1513 1513 1513 1513
1489 1490 1489 1489 1485 1482 1484 1480 1474 1472 1473 1475 1477 1478 1479 1481 1483 1485 1487 1488 1490 1492 1493 1495 1497 1499 1500 1502 1503 1505 1506 1507 1508 1509 1510 1511 1511 1511 1511 1511 1511 1511 1511 1511 1511 1511 1511 1511 1511
1491 1488 1488 1489 1492 1490 1485 1489 1473 1470 1472 1473 1475 1476 1478 1480 1482 1484 1486 1487 1489 1490 1492 1494 1496 1498 1499 1500 1502 1503 1505 1505 1506 1507 1508 1508 1509 1509 1510 1510 1510 1509 1509 1509 1509 1509 1508 1508 1508
1490 1488 1489 1489 1490 1491 1483 1486 1477 1468 1472 1472 1473 1475 1477 1479 1481 1483 1484 1486 1488 1489 1491 1493 1494 1496 1497 1499 1500 1502 1503 1504 1505 1506 1506 1506 1507 1507 1507 1507 1507 1507 1507 1507 1506 1506 1506 1506 1506
1489 1489 1488 1489 1492 1495 1481 1483 1477 1469 1467 1469 1471 1473 1476 1478 1480 1482 1483 1485 1486 1488 1489 1491 1492 1494 1495 1497 1498 1500 1501 1502 1502 1503 1503 1504 1504 1505 1505 1505 1505 1504 1504 1504 1503 1503 1503 1503 1503
1490 1494 1497 1496 1495 1488 1474 1477 1473 1462 1461 1464 1468 1471 1474 1477 1479 1480 1482 1483 1484 1486 1487 1489 1490 1492 1493 1495 1496 1497 1499 1499 1500 1501 1501 1501 1502 1502 1502 1502 1502 1502 1501 1501 1501 1500 1500 1500 1499
1489 1490 1499 1500 1493 1483 1476 1477 1468 1460 1461 1464 1467 1470 1473 1475 1477 1479 1480 1482 1483 1484 1485 1487 1488 1489 1491 1492 1494 1495 1496 1497 1497 1498 1498 1499 1499 1499 1499 1499 1499 1498 1498 1498 1497 1497 1496 1496 1496
1489 1490 1489 1494 1490 1491 1478 1466 1464 1461 1462 1464 1467 1469 1471 1474 1475 1477 1479 1480 1481 1482 1483 1485 1486 1487 1489 1490 1491 1492 1493 1494 1494 1495 1495 1496 1496 1496 1496 1495 1495 1495 1495 1494 1493 1493 1493 1493 1492
1489 1487 1492 1495 1496 1490 1473 1465 1466 1463 1463 1464 1466 1468 1470 1472 1474 1476 1477 1478 1480 1481 1482 1483 1484 1485 1486 1487 1488 1489 1490 1491 1491 1492 1492 1492 1493 1492 1492 1492 1492 1491 1491 1490 1490 1489 1489 1488 1488
1490 1490 1489 1490 1488 1491 1485 1474 1458 1458 1459 1462 1464 1466 1469 1470 1472 1474 1475 1477 1478 1479 1480 1480 1481 1482 1483 1484 1485 1486 1487 1487 1487 1488 1488 1489 1489 1489 1488 1488 1488 1487 1487 1486 1485 1485 1485 1484 1484
1483 1483 1487 1494 1490 1485 1486 1479 1458 1457 1458 1461 1463 1466 1467 1469 1470 1472 1473 1474 1475 1476 1477 1478 1478 1479 1480 1481 1482 1482 1483 1483 1484 1484 1485 1485 1485 1484 1484 1484 1483 1483 1482 1482 1481 1481 1481 1480 1480